Powrót do katalogu

STARLINK-36298

AktywnyŁącznośćVLEO
NORAD 68517·PAYLOAD·🇺🇸 United States

Wystrzelony Mar 30, 2026 z Cape Canaveral Space Force Station

Loading…

Następne Przeloty (najbliższe 24 godziny)

TLE

ŚwieżeSource: CelesTrak SupGP

Epoka: Sep 15, 2026, 03:09 UTC

1 68517C 26068K   26258.13173611  .00057704  00000+0  17042-2 0  2581
2 68517  53.1580 324.9202 0001156  90.5724 201.2768 15.34373720    15

Śledź STARLINK-36298 w czasie rzeczywistym z AllMySat

Download on the App Store